Location: ???????
(37.9763°N, 23.8889°E)
Time: 22:00:47
(UTC+00:00)

SWAS - Visible Passes

Search period start: 13 September 2024 00:00
Search period end: 23 September 2024 00:00
Orbit: 557 x 566 km, 69.9° (Epoch: 13 September)

Date Brightness Start Highest point End Pass type
(mag) Time Alt. Az. Time Alt. Az. Time Alt. Az.
15 Sep 7.8 03:10:43 10° ESE 03:11:59 11° E 03:13:14 10° E visible
16 Sep 7.4 03:08:23 10° SE 03:10:55 16° ESE 03:13:29 10° ENE visible
17 Sep 7.0 03:06:39 10° SSE 03:09:53 22° ESE 03:13:07 10° NE visible
18 Sep 6.3 03:05:10 10° S 03:08:50 31° ESE 03:12:31 10° NE visible
19 Sep 5.6 03:03:50 10° S 03:07:47 43° ESE 03:11:44 10° NE visible
20 Sep 4.8 03:02:37 10° SSW 03:06:44 63° ESE 03:10:51 10° NNE visible
21 Sep 4.3 03:01:31 10° SSW 03:05:39 89° SE 03:09:50 10° NNE visible
22 Sep 4.3 03:01:28 17° SW 03:04:37 64° WNW 03:08:45 10° NNE visible
